Location: Unspecified
(0.0000°N, 0.0000°E)
Time: 07:08:05
(UTC+00:00)

Vanguard 2 - All Passes

Search period start: 26 June 2017 00:00
Search period end: 06 July 2017 00:00
Orbit: 554 x 2940 km, 32.9° (Epoch: 25 June)

Date Brightness Start Highest point End Pass type
(mag) Time Alt. Az. Time Alt. Az. Time Alt. Az.
26 Jun - 01:01:28 10° NNW 01:07:55 14° N 01:13:22 10° NNE visible
26 Jun - 03:13:01 10° NNW 03:21:55 26° NNE 03:27:59 10° ENE visible
26 Jun - 05:24:07 10° NW 05:32:19 85° SW 05:37:22 10° SE visible
26 Jun - 14:11:39 10° S 14:16:06 15° SE 14:21:41 10° ESE daylight
26 Jun - 16:16:23 10° SW 16:26:00 62° SE 16:41:24 10° ENE daylight
26 Jun - 18:25:34 10° WSW 18:37:59 55° NNW 18:55:08 10° NE visible
26 Jun - 20:40:28 10° WNW 20:53:01 26° NNW 21:06:27 10° NNE visible
26 Jun - 23:02:30 10° NW 23:10:44 15° N 23:18:12 10° NNE visible
27 Jun - 01:19:31 10° NNW 01:27:41 17° NNE 01:34:08 10° NE visible
27 Jun - 03:30:51 10° NW 03:40:51 37° NNE 03:47:10 10° E visible
27 Jun - 05:42:50 10° WNW 05:50:27 51° SW 05:55:19 10° SE daylight
27 Jun - 14:28:20 10° S 14:34:25 23° SE 14:42:58 10° E daylight
27 Jun - 16:34:24 10° SW 16:44:17 81° SE 17:00:20 10° ENE daylight
27 Jun - 18:44:39 10° W 18:56:56 43° NNW 19:13:16 10° NE visible
27 Jun - 21:01:19 10° WNW 21:12:48 21° NNW 21:24:40 10° NNE visible
27 Jun - 23:22:54 10° NNW 23:31:00 15° N 23:38:11 10° NNE visible
28 Jun - 01:37:24 10° NNW 01:47:13 21° NNE 01:54:27 10° ENE visible
28 Jun - 03:48:53 10° NW 03:59:35 53° NNE 04:05:56 10° ESE visible
28 Jun - 06:02:03 10° W 06:08:28 30° SW 06:12:54 10° SSE daylight
28 Jun - 14:45:35 10° SSW 14:52:34 33° SE 15:03:16 10° E daylight
28 Jun - 16:52:39 10° WSW 17:02:42 78° NW 17:18:56 10° NE daylight
28 Jun - 19:04:09 10° W 19:16:06 34° NNW 19:31:19 10° NNE visible
28 Jun - 21:22:29 10° NW 21:32:50 18° NNW 21:43:14 10° NNE visible
28 Jun - 23:42:17 10° NNW 23:51:09 16° N 23:58:47 10° NE visible
29 Jun - 01:55:16 10° NNW 02:06:31 28° NNE 02:14:16 10° ENE visible
29 Jun - 04:07:12 10° NW 04:18:04 79° NE 04:24:22 10° ESE visible
29 Jun - 06:21:59 10° W 06:26:29 18° SW 06:29:59 10° S daylight
29 Jun - 15:03:10 10° SSW 15:10:39 47° SE 15:22:55 10° ENE daylight
29 Jun - 17:11:09 10° WSW 17:21:21 60° NNW 17:37:18 10° NE daylight
29 Jun - 19:24:05 10° WNW 19:35:31 27° NNW 19:49:24 10° NNE visible
29 Jun - 21:43:35 10° NW 21:53:05 16° N 22:02:22 10° NNE visible
30 Jun - 00:00:55 10° NNW 00:11:08 19° NNE 00:19:31 10° NE visible
30 Jun - 02:13:13 10° NW 02:25:37 37° NNE 02:33:36 10° E visible
30 Jun - 04:25:48 10° WNW 04:36:20 71° SW 04:42:31 10° SE visible
30 Jun - 13:16:52 10° SSE 13:19:53 13° SE 13:23:26 10° ESE daylight
30 Jun - 15:20:59 10° SW 15:28:47 67° SE 15:42:04 10° ENE daylight
30 Jun - 17:30:00 10° W 17:40:10 46° NNW 17:55:29 10° NE daylight
30 Jun - 19:44:30 10° WNW 19:55:12 22° NNW 20:07:36 10° NNE visible
30 Jun - 22:04:08 10° NNW 22:13:26 16° N 22:22:18 10° NNE visible
01 Jul - 00:19:09 10° NNW 00:30:52 23° NNE 00:39:58 10° ENE visible
01 Jul - 02:31:17 10° NW 02:44:30 50° NNE 02:52:32 10° ESE visible
01 Jul - 04:44:48 10° WNW 04:54:26 46° SW 05:00:21 10° SSE visible
01 Jul - 13:33:14 10° S 13:38:02 21° SE 13:44:41 10° E daylight
01 Jul - 15:39:03 10° SW 15:47:03 89° NNW 16:00:50 10° NE daylight
01 Jul - 17:49:12 10° W 17:59:15 36° NNW 18:13:34 10° NE daylight
01 Jul - 20:05:17 10° NW 20:15:09 19° NNW 20:26:06 10° NNE visible
01 Jul - 22:23:50 10° NNW 22:33:45 17° N 22:42:54 10° NE visible
02 Jul - 00:37:13 10° NNW 00:50:22 29° NNE 00:59:58 10° ENE visible
02 Jul - 02:49:33 10° NW 03:03:09 69° NNE 03:11:08 10° ESE visible
02 Jul - 05:04:18 10° W 05:12:27 30° SW 05:17:53 10° SSE visible
02 Jul - 13:50:26 10° SSW 13:56:05 33° SE 14:04:44 10° E daylight
02 Jul - 15:57:24 10° WSW 16:05:32 66° NNW 16:19:18 10° NE daylight
02 Jul - 18:08:50 10° WNW 18:18:32 28° NNW 18:31:35 10° NNE visible
02 Jul - 20:26:10 10° NW 20:35:20 17° N 20:45:08 10° NNE visible
02 Jul - 22:42:46 10° NNW 22:53:54 19° NNE 23:03:47 10° NE visible
03 Jul - 00:55:15 10° NW 01:09:36 37° NNE 01:19:31 10° E visible
03 Jul - 03:08:03 10° NW 03:21:35 87° SW 03:29:25 10° SE visible
03 Jul - 05:24:30 10° W 05:30:30 19° SW 05:34:58 10° S visible
03 Jul - 14:08:02 10° SW 14:14:06 50° SE 14:24:08 10° ENE daylight
03 Jul - 16:16:02 10° W 16:24:13 48° NNW 16:37:31 10° NE daylight
03 Jul - 18:28:55 10° WNW 18:38:04 22° NNW 18:49:40 10° NNE visible
03 Jul - 20:46:42 10° NNW 20:55:39 16° N 21:04:57 10° NNE visible
03 Jul - 23:01:13 10° NNW 23:13:48 23° NNE 23:24:30 10° ENE visible
04 Jul - 01:13:20 10° NW 01:28:38 48° NNE 01:38:40 10° E visible
04 Jul - 03:26:53 10° WNW 03:39:50 63° SW 03:47:26 10° SE visible
04 Jul - 05:46:16 10° WSW 05:48:42 11° SW 05:50:51 10° SSW daylight
04 Jul - 12:22:14 10° SSE 12:23:55 11° SE 12:25:48 10° ESE daylight
04 Jul - 14:25:55 10° SW 14:32:13 76° SE 14:43:03 10° ENE daylight
04 Jul - 16:35:02 10° W 16:43:08 36° NNW 16:55:35 10° NE daylight
04 Jul - 18:49:26 10° NW 18:57:51 18° N 19:07:58 10° NNE visible
04 Jul - 21:06:31 10° NNW 21:16:00 16° N 21:25:36 10° NE visible
04 Jul - 23:19:23 10° NNW 23:33:26 28° NNE 23:44:50 10° ENE visible
05 Jul - 01:31:32 10° NW 01:47:26 63° NNE 01:57:26 10° ESE visible
05 Jul - 03:46:07 10° WNW 03:57:56 44° SW 04:05:13 10° SSE visible
05 Jul - 12:38:12 10° S 12:42:01 20° SE 12:47:05 10° E daylight
05 Jul - 14:44:06 10° WSW 14:50:32 74° NNW 15:01:36 10° NE daylight
05 Jul - 16:54:26 10° WNW 17:02:17 27° NNW 17:13:30 10° NNE daylight
05 Jul - 19:10:10 10° NW 19:17:52 16° N 19:26:44 10° NNE visible
05 Jul - 21:25:34 10° NNW 21:36:14 18° NNE 21:46:43 10° NE visible
